1497247200.11,3475,20.0,74136.8,17.09,-12.75,-11.73,0,*72
1497247201.38,3476,20.0,74140.0,17.11,-13.01,-11.81,0,*77
1497247202.58,3477,20.0,74138.5,17.13,-13.23,-12.03,0,*7D
1497247203.86,3478,20.0,74144.5,17.15,-13.33,-12.11,0,*76
1497247205.08,3479,20.0,74142.5,17.15,-13.65,-12.47,0,*77
1497247206.3,3480,20.0,74146.3,17.17,-14.51,-13.47,0,*72
1497247207.52,3481,20.0,74140.8,17.17,-15.11,-13.97,0,*7B
1497247208.7,3482,20.0,74142.5,17.17,-14.69,-13.65,0,*7B
1497247209.91,3483,20.0,74138.3,17.17,-15.85,-14.69,0,*72
1497247211.16,3484,19.94,74132.5,17.15,-15.67,-14.51,0,*70
1497247212.38,3485,20.0,74132.8,17.13,-14.43,-13.15,0,*77
1497247213.61,3486,20.0,74136.5,17.13,-14.83,-13.51,0,*78
1497247214.87,3487,20.0,74138.5,17.13,-13.97,-12.71,0,*78
1497247216.1,3488,19.94,74132.8,17.15,-13.47,-12.21,0,*79
1497247217.35,3489,20.0,74134.8,17.15,-13.11,-11.81,0,*72
1497247218.6,3490,20.0,74134.0,17.15,-13.65,-12.35,0,*75
1497247219.83,3491,20.0,74134.0,17.19,-14.15,-12.93,0,*74
1497247221.06,3492,20.0,74132.8,17.19,-13.73,-12.43,0,*7D
1497247222.32,3493,20.0,74136.3,17.19,-14.51,-13.19,0,*75
1497247223.54,3494,20.0,74134.3,17.19,-14.61,-13.19,0,*71
1497247224.79,3495,20.0,74134.3,17.19,-14.51,-13.07,0,*7C
1497247226.04,3496,20.0,74130.5,17.19,-13.93,-12.53,0,*76
1497247227.32,3497,20.0,74134.8,17.19,-14.01,-12.53,0,*7B
1497247228.59,3498,20.0,74140.3,17.19,-14.75,-13.29,0,*7B
1497247229.8,3499,20.0,74136.5,17.19,-15.07,-13.47,0,*76
1497247231.0,3500,20.0,74138.5,17.17,-15.11,-13.79,0,*73
1497247232.21,3501,20.0,74138.3,17.17,-15.25,-13.79,0,*75
1497247233.39,3502,20.0,74136.3,17.17,-15.11,-13.69,0,*70
1497247234.6,3503,19.94,74130.8,17.17,-15.35,-13.93,0,*72
1497247235.84,3504,20.0,74138.8,17.17,-14.79,-13.33,0,*76
1497247237.03,3505,19.94,74128.3,17.17,-14.65,-13.11,0,*7A
1497247238.25,3506,20.0,74132.3,17.15,-15.11,-13.65,0,*7A
1497247239.51,3507,20.0,74134.3,17.15,-14.19,-12.71,0,*76
1497247240.74,3508,20.0,74136.5,17.15,-14.69,-13.19,0,*71
1497247242.0,3509,20.0,74134.8,17.15,-13.97,-12.47,0,*7C
1497247243.26,3510,20.0,74136.5,17.15,-13.83,-12.21,0,*71
1497247244.49,3511,20.0,74134.3,17.15,-14.37,-12.93,0,*71
1497247245.71,3512,20.0,74138.0,17.15,-15.11,-13.51,0,*78
1497247246.99,3513,19.94,74132.5,17.15,-16.27,-14.79,0,*72
1497247248.22,3514,20.0,74130.5,17.13,-17.17,-15.63,0,*7B
1497247249.44,3515,20.0,74134.8,17.09,-17.25,-15.75,0,*77
1497247250.67,3516,20.0,74134.3,17.09,-16.93,-15.43,0,*7D
1497247251.88,3517,20.0,74132.8,17.05,-15.99,-14.37,0,*7B
1497247253.13,3518,20.0,74138.0,17.05,-15.53,-13.97,0,*7F
1497247254.4,3519,20.0,74138.3,17.05,-15.39,-13.87,0,*73
1497247255.64,3520,20.0,74136.8,17.05,-15.99,-14.51,0,*7F
1497247256.9,3521,19.94,74132.0,17.01,-15.39,-13.83,0,*78
1497247258.14,3522,19.94,74134.0,17.01,-15.63,-14.01,0,*79
1497247259.4,3523,20.0,74134.5,16.99,-15.89,-14.47,0,*7E
1497247260.65,3524,20.0,74130.3,16.99,-16.51,-14.93,0,*76
1497247261.9,3525,20.0,74128.0,16.97,-16.69,-15.11,0,*79
1497247263.12,3526,20.0,74130.3,16.95,-16.27,-14.69,0,*7C
1497247264.34,3527,19.94,74130.8,16.95,-15.81,-14.19,0,*75
1497247265.55,3528,20.0,74132.3,16.93,-15.67,-14.11,0,*7C
1497247266.82,3529,20.0,74134.8,16.93,-16.27,-14.83,0,*71
1497247268.08,3530,20.0,74134.3,16.91,-16.17,-14.75,0,*71
1497247269.29,3531,20.0,74136.0,16.91,-16.03,-14.43,0,*70
1497247270.55,3532,20.0,74138.5,16.89,-15.67,-14.05,0,*79
1497247271.8,3533,20.0,74134.3,16.87,-16.27,-14.79,0,*7A
1497247273.01,3534,20.0,74138.8,16.87,-16.83,-15.25,0,*7B
1497247274.21,3535,20.0,74134.0,16.87,-15.95,-14.37,0,*7C
1497247275.43,3536,20.0,74130.5,16.83,-15.39,-13.93,0,*74
1497247276.65,3537,20.0,74130.8,16.83,-16.17,-14.69,0,*78
1497247277.85,3538,20.0,74134.3,16.83,-15.99,-14.37,0,*79
1497247279.07,3539,20.0,74132.5,16.81,-15.15,-13.55,0,*7D
1497247280.34,3540,20.0,74136.0,16.81,-15.35,-13.87,0,*7E
1497247281.57,3541,20.0,74136.5,16.77,-15.75,-14.23,0,*7B
1497247282.81,3542,20.0,74136.0,16.77,-15.21,-13.65,0,*7C
1497247284.06,3543,19.94,74134.0,16.81,-15.15,-13.61,0,*77
1497247285.27,3544,20.0,74134.5,16.77,-15.07,-13.47,0,*7E
1497247286.5,3545,19.94,74134.3,16.77,-14.97,-13.47,0,*77
1497247287.72,3546,20.0,74136.3,16.75,-16.03,-14.69,0,*72
1497247288.97,3547,20.0,74138.3,16.75,-15.95,-14.43,0,*77
1497247290.19,3548,20.0,74136.5,16.71,-16.45,-15.07,0,*73
1497247291.44,3549,20.0,74138.0,16.71,-16.17,-14.69,0,*7C
1497247292.69,3550,20.0,74136.0,16.71,-15.49,-14.01,0,*72
1497247293.89,3551,20.0,74136.5,16.69,-15.63,-14.15,0,*77
1497247295.08,3552,19.94,74132.3,16.69,-15.15,-13.73,0,*72
1497247296.36,3553,20.0,74142.0,16.67,-14.79,-13.33,0,*72
1497247297.6,3554,19.94,74138.3,16.65,-16.27,-14.93,0,*73
1497247298.85,3555,19.94,74136.5,16.65,-15.85,-14.43,0,*74
1497247300.06,3556,20.0,74138.8,16.65,-14.93,-13.51,0,*75
1497247301.29,3557,20.0,74136.8,16.65,-14.51,-13.11,0,*7E
1497247302.49,3558,20.0,74136.5,16.65,-14.65,-13.23,0,*77
1497247303.74,3559,20.0,74138.8,16.63,-14.47,-13.11,0,*71
1497247304.95,3560,20.0,74140.5,16.65,-15.11,-13.79,0,*71
1497247306.23,3561,20.0,74142.3,16.67,-16.23,-14.93,0,*73
1497247307.47,3562,20.0,74138.3,16.61,-15.57,-14.43,0,*7B
1497247308.7,3563,20.0,74142.3,16.61,-14.97,-13.61,0,*70
1497247309.93,3564,20.0,74138.0,16.61,-14.47,-13.15,0,*79
1497247311.15,3565,20.0,74134.3,16.61,-14.61,-13.29,0,*73
1497247312.4,3566,20.0,74136.0,16.59,-15.15,-13.79,0,*7C
1497247313.59,3567,20.0,74140.8,16.61,-14.89,-13.69,0,*73
1497247314.8,3568,20.0,74138.3,16.61,-15.15,-13.87,0,*78
1497247316.05,3569,20.0,74136.5,16.55,-14.93,-13.55,0,*7E
1497247317.3,3570,19.94,74134.0,16.59,-13.93,-12.61,0,*7B
1497247318.49,3571,19.94,74138.3,16.61,-14.33,-13.23,0,*7B
1497247319.74,3572,20.0,74136.5,16.59,-14.75,-13.47,0,*73
1497247320.99,3573,20.0,74136.8,16.55,-14.43,-13.19,0,*70
1497247322.24,3574,20.0,74142.3,16.55,-14.69,-13.33,0,*77
1497247323.46,3575,20.0,74140.0,16.59,-14.37,-13.15,0,*75
1497247324.69,3576,20.0,74138.3,16.59,-14.37,-13.15,0,*76
1497247325.87,3577,20.0,74140.0,16.61,-14.69,-13.43,0,*74
1497247327.1,3578,20.0,74136.3,16.59,-14.37,-13.15,0,*78
1497247328.36,3579,20.0,74140.0,16.55,-14.05,-12.93,0,*7B
1497247329.62,3580,20.0,74142.5,16.59,-14.15,-13.01,0,*7A
1497247330.83,3581,20.0,74138.5,16.55,-14.69,-13.51,0,*79
1497247332.06,3582,20.0,74136.8,16.55,-14.19,-13.07,0,*7E
1497247333.34,3583,20.0,74138.3,16.55,-13.97,-12.83,0,*73
1497247334.59,3584,20.0,74134.3,16.55,-14.51,-13.43,0,*74
1497247335.84,3585,20.0,74134.0,16.55,-14.79,-13.65,0,*7B
1497247337.07,3586,20.0,74140.5,16.55,-14.93,-13.69,0,*70
1497247338.32,3587,20.0,74138.5,16.53,-14.43,-13.33,0,*75
1497247339.57,3588,20.0,74140.0,16.53,-14.43,-13.33,0,*7A
1497247340.84,3589,20.0,74138.0,16.51,-14.15,-13.01,0,*7B
1497247342.08,3590,19.94,74134.8,16.53,-13.79,-12.57,0,*7E
1497247343.31,3591,20.0,74138.3,16.53,-14.05,-13.07,0,*77
1497247344.53,3592,20.0,74138.5,16.53,-13.65,-12.53,0,*75
1497247345.73,3593,20.0,74138.3,16.53,-13.55,-12.47,0,*72
1497247346.95,3594,20.0,74138.0,16.53,-13.65,-12.65,0,*76
1497247348.18,3595,20.0,74136.8,16.53,-13.97,-12.93,0,*73
1497247349.38,3596,20.0,74140.0,16.53,-14.19,-13.11,0,*7A
1497247350.64,3597,20.0,74136.5,16.51,-14.47,-13.47,0,*71
1497247351.89,3598,20.0,74132.8,16.53,-13.87,-12.79,0,*7B
1497247353.12,3599,19.94,74130.3,16.53,-13.97,-12.97,0,*7B
1497247354.34,3600,20.0,74134.5,16.53,-14.69,-13.61,0,*76
1497247355.61,3601,19.94,74142.0,16.51,-15.01,-13.97,0,*73
1497247356.81,3602,19.94,74138.5,16.49,-15.71,-14.69,0,*78
1497247358.04,3603,19.94,74138.0,16.49,-15.11,-14.01,0,*71
1497247359.29,3604,20.0,74140.5,16.47,-14.33,-13.33,0,*7F
1497247360.56,3605,19.94,74138.0,16.47,-14.93,-13.87,0,*7B
1497247361.79,3606,20.0,74140.8,16.47,-14.15,-13.15,0,*7D
1497247363.04,3607,20.0,74136.0,16.47,-15.15,-14.05,0,*7B
1497247364.27,3608,20.0,74132.8,16.43,-14.55,-13.55,0,*77
1497247365.48,3609,20.0,74134.5,16.43,-14.23,-13.15,0,*73
1497247366.71,3610,19.94,74136.5,16.43,-14.01,-13.11,0,*7F
1497247367.94,3611,20.0,74134.5,16.45,-13.65,-12.61,0,*7B
1497247369.18,3612,20.0,74132.5,16.43,-13.51,-12.53,0,*78
1497247370.41,3613,19.94,74132.5,16.43,-13.37,-12.29,0,*74
1497247371.64,3614,20.0,74134.0,16.45,-12.93,-11.85,0,*7F
1497247372.89,3615,20.0,74130.3,16.43,-13.61,-12.83,0,*71
1497247374.12,3616,19.94,74132.0,16.45,-13.93,-12.83,0,*79
1497247375.35,3617,20.0,74132.5,16.45,-13.37,-12.47,0,*7E
1497247376.56,3618,20.0,74136.8,16.45,-13.23,-12.21,0,*74
1497247377.81,3619,20.0,74140.3,16.47,-13.79,-12.93,0,*71
1497247379.04,3620,19.94,74138.0,16.47,-14.29,-13.43,0,*75
1497247380.29,3621,20.0,74146.3,16.47,-14.47,-13.47,0,*78
1497247381.5,3622,20.0,74142.0,16.45,-14.11,-13.23,0,*78
1497247382.73,3623,20.0,74140.0,16.43,-14.89,-14.01,0,*79
1497247383.97,3624,20.0,74138.3,16.45,-14.23,-13.33,0,*7E
1497247385.2,3625,20.0,74134.0,16.45,-13.79,-12.93,0,*7C
1497247386.44,3626,20.0,74138.8,16.43,-15.39,-14.43,0,*70
1497247387.68,3627,19.94,74138.8,16.43,-14.15,-13.29,0,*75
1497247388.91,3628,20.0,74140.3,16.43,-14.01,-13.11,0,*74
1497247390.14,3629,20.0,74138.5,16.45,-13.79,-12.93,0,*70
1497247391.37,3630,20.0,74138.8,16.41,-14.37,-13.51,0,*7E
1497247392.65,3631,20.0,74142.0,16.41,-14.97,-13.97,0,*7F
1497247393.9,3632,20.0,74136.8,16.39,-13.61,-12.61,0,*75
1497247395.15,3633,19.94,74138.3,16.41,-14.01,-13.15,0,*78
1497247396.4,3634,19.94,74138.3,16.41,-13.69,-12.83,0,*78
1497247397.66,3635,20.0,74140.0,16.39,-13.33,-12.35,0,*74
1497247398.94,3636,19.94,74136.8,16.41,-13.61,-12.75,0,*7B
1497247400.15,3637,19.94,74140.5,16.43,-14.23,-13.43,0,*7D
1497247401.35,3638,19.94,74142.0,16.39,-14.29,-13.43,0,*75
1497247402.59,3639,20.0,74142.5,16.41,-14.97,-14.15,0,*7A
1497247403.84,3640,20.0,74140.0,16.39,-14.93,-14.05,0,*7E
1497247405.12,3641,19.94,74138.0,16.33,-16.23,-15.39,0,*72
1497247406.38,3642,20.0,74138.5,16.33,-16.69,-15.95,0,*79
1497247407.63,3643,20.0,74138.0,16.29,-17.11,-16.37,0,*76
1497247408.87,3644,19.94,74136.8,16.23,-17.45,-16.55,0,*7E
1497247410.09,3645,20.0,74142.0,16.23,-15.99,-15.21,0,*7C
1497247411.35,3646,20.0,74136.5,16.19,-14.55,-13.61,0,*75
1497247412.61,3647,20.0,74136.8,16.19,-14.55,-13.61,0,*74
1497247413.89,3648,19.94,74136.0,16.21,-13.97,-13.01,0,*7F
1497247415.15,3649,20.0,74138.0,16.19,-14.01,-13.29,0,*77
1497247416.38,3650,19.94,74138.3,16.19,-14.05,-13.43,0,*77
1497247417.63,3651,19.94,74136.0,16.19,-14.75,-13.87,0,*79
1497247418.88,3652,19.94,74134.5,16.19,-13.33,-12.57,0,*73
1497247420.11,3653,19.94,74140.8,16.21,-13.15,-12.25,0,*78
1497247421.36,3654,20.0,74142.3,16.21,-13.11,-12.11,0,*7C
1497247422.64,3655,20.0,74142.5,16.21,-13.01,-12.11,0,*7C
1497247423.9,3656,20.0,74140.3,16.27,-13.61,-12.75,0,*7D
1497247425.11,3657,20.0,74140.3,16.23,-13.23,-12.39,0,*76
1497247426.32,3658,20.0,74144.0,16.27,-13.07,-12.21,0,*72
1497247427.55,3659,19.94,74142.8,16.27,-13.19,-12.35,0,*79
1497247428.77,3660,20.0,74144.3,16.27,-14.15,-13.43,0,*78
1497247430.0,3661,19.94,74140.0,16.27,-14.83,-14.15,0,*72
1497247431.21,3662,20.0,74144.3,16.23,-14.37,-13.65,0,*7A
1497247432.46,3663,20.0,74140.3,16.23,-15.39,-14.51,0,*74
1497247433.73,3664,19.94,74142.8,16.21,-14.51,-13.79,0,*73
1497247435.01,3665,19.94,74142.8,16.21,-14.79,-14.01,0,*70
1497247436.24,3666,19.94,74140.3,16.19,-14.43,-13.69,0,*78
1497247437.49,3667,19.94,74142.8,16.17,-13.87,-13.07,0,*70
1497247438.7,3668,19.94,74140.0,16.19,-14.15,-13.43,0,*7D
1497247439.92,3669,19.94,74140.8,16.17,-15.11,-14.33,0,*77
1497247441.14,3670,19.94,74142.5,16.15,-14.93,-14.23,0,*77
1497247442.38,3671,19.94,74138.3,16.15,-13.23,-12.35,0,*7B
1497247443.66,3672,20.0,74136.5,16.17,-12.65,-11.93,0,*76
1497247444.94,3673,19.94,74130.8,16.17,-12.35,-11.55,0,*78
1497247446.22,3674,19.94,74134.0,16.21,-12.15,-11.55,0,*78
1497247447.47,3675,19.94,74130.0,16.21,-12.15,-11.45,0,*78
1497247448.74,3676,19.94,74132.0,16.21,-12.07,-11.33,0,*79
1497247449.97,3677,20.0,74136.8,16.27,-11.73,-11.01,0,*7F
1497247451.18,3678,20.0,74134.8,16.27,-13.55,-12.93,0,*7E
1497247452.41,3679,20.0,74134.8,16.27,-13.07,-12.57,0,*70
1497247453.69,3680,20.0,74134.8,16.29,-13.29,-12.61,0,*71
1497247454.92,3681,20.0,74138.3,16.27,-12.03,-11.37,0,*77
1497247456.15,3682,20.0,74138.0,16.27,-11.63,-11.01,0,*74
1497247457.4,3683,20.0,74136.0,16.31,-11.81,-11.07,0,*78
1497247458.66,3684,20.0,74136.3,16.31,-11.93,-11.29,0,*70
1497247459.92,3685,19.94,74134.5,16.33,-12.39,-11.89,0,*7A
1497247461.2,3686,19.94,74134.5,16.33,-11.89,-11.29,0,*7B
1497247462.45,3687,19.94,74134.0,16.37,-11.73,-10.97,0,*7F
1497247463.7,3688,20.0,74136.5,16.39,-11.89,-11.37,0,*70
1497247464.93,3689,19.94,74134.3,16.39,-11.59,-10.93,0,*73
1497247466.21,3690,19.94,74138.3,16.41,-12.15,-11.73,0,*70
1497247467.44,3691,20.0,74136.3,16.41,-12.89,-12.43,0,*74
1497247468.66,3692,20.0,74138.5,16.41,-13.43,-12.89,0,*76
1497247469.92,3693,20.0,74134.0,16.41,-13.61,-13.11,0,*77
1497247471.17,3694,19.94,74130.3,16.41,-12.43,-11.85,0,*7E
1497247472.41,3695,20.0,74138.8,16.41,-12.83,-12.25,0,*7A
1497247473.69,3696,20.0,74142.5,16.41,-12.11,-11.59,0,*7A
1497247474.97,3697,20.0,74144.5,16.41,-12.57,-11.97,0,*7B
1497247476.22,3698,20.0,74140.8,16.41,-12.65,-12.03,0,*7B
1497247477.44,3699,19.94,74138.3,16.41,-13.55,-13.15,0,*7E
1497247478.72,3700,20.0,74136.5,16.41,-12.71,-12.11,0,*7D
1497247479.97,3701,20.0,74142.3,16.41,-12.83,-12.25,0,*76
1497247481.22,3702,19.94,74140.3,16.41,-12.43,-11.89,0,*7C
1497247482.48,3703,19.94,74136.5,16.41,-14.15,-13.61,0,*7C
1497247483.71,3704,19.94,74136.8,16.41,-12.97,-12.29,0,*7A
1497247484.98,3705,20.0,74138.8,16.41,-12.71,-12.15,0,*7C
1497247486.24,3706,19.94,74136.3,16.41,-13.23,-12.75,0,*7F
1497247487.47,3707,19.94,74132.5,16.39,-13.19,-12.79,0,*74
1497247488.72,3708,20.0,74142.0,16.41,-12.83,-12.43,0,*7F
1497247489.95,3709,20.0,74138.3,16.39,-14.15,-13.79,0,*70
1497247491.15,3710,20.0,74140.0,16.39,-13.55,-13.15,0,*71
1497247492.4,3711,20.0,74142.5,16.37,-13.79,-13.43,0,*73
1497247493.6,3712,20.0,74146.3,16.39,-13.73,-13.43,0,*74
1497247494.82,3713,19.94,74138.5,16.37,-13.43,-12.93,0,*74
1497247496.07,3714,19.94,74138.0,16.37,-12.71,-12.25,0,*7E
1497247497.36,3715,19.94,74136.0,16.33,-12.65,-12.35,0,*7F
1497247498.61,3716,20.0,74142.5,16.33,-13.47,-13.33,0,*7A
1497247499.87,3717,20.0,74138.8,16.33,-14.83,-15.11,0,*72
1497247501.13,3718,20.0,74138.5,16.31,-15.57,-15.39,0,*7D
1497247502.38,3719,19.94,74138.3,16.29,-15.15,-15.01,0,*78
1497247503.64,3720,20.0,74142.5,16.23,-14.75,-14.47,0,*7C
1497247504.87,3721,19.94,74136.8,16.23,-12.97,-12.75,0,*70
1497247506.08,3722,19.94,74140.5,16.23,-12.25,-12.03,0,*7B
1497247507.31,3723,20.0,74142.3,16.23,-12.93,-12.61,0,*73
1497247508.54,3724,20.0,74140.5,16.23,-12.75,-12.47,0,*78
1497247509.74,3725,20.0,74140.0,16.23,-13.23,-13.07,0,*7E
1497247510.97,3726,19.94,74140.3,16.23,-12.97,-12.75,0,*77
1497247512.23,3727,19.94,74136.3,16.23,-12.11,-11.93,0,*73
1497247513.46,3728,19.94,74136.5,16.23,-12.03,-11.89,0,*74
1497247514.72,3729,20.0,74136.3,16.27,-11.59,-11.51,0,*78
1497247515.95,3730,19.94,74136.8,16.27,-11.33,-11.11,0,*78
1497247517.18,3731,19.94,74138.8,16.29,-12.93,-12.93,0,*77
1497247518.44,3732,19.94,74134.3,16.29,-13.33,-13.19,0,*7C
1497247519.67,3733,20.0,74136.5,16.31,-12.03,-12.07,0,*78
1497247520.95,3734,19.94,74132.8,16.29,-11.51,-11.51,0,*72
1497247522.22,3735,19.94,74134.0,16.29,-11.85,-11.77,0,*7E
1497247523.45,3736,19.94,74132.5,16.29,-12.47,-12.43,0,*74
1497247524.73,3737,19.94,74130.0,16.29,-11.97,-11.89,0,*7E
1497247525.96,3738,19.94,74132.0,16.31,-11.41,-11.33,0,*72
1497247527.24,3739,19.94,74128.5,16.29,-11.63,-11.63,0,*7F
1497247528.49,3740,19.94,74130.0,16.31,-11.73,-11.73,0,*78
1497247529.75,3741,19.94,74130.0,16.31,-12.15,-12.15,0,*79
1497247531.0,3742,20.0,74132.0,16.31,-11.59,-11.67,0,*77
1497247532.26,3743,20.0,74132.5,16.31,-11.29,-11.29,0,*7B
1497247533.52,3744,20.0,74132.8,16.33,-11.41,-11.55,0,*7B
1497247534.78,3745,19.94,74122.3,16.33,-12.07,-12.25,0,*7F
1497247536.06,3746,20.0,74120.5,16.33,-12.53,-12.65,0,*79
1497247537.31,3747,19.94,74128.3,16.33,-12.35,-12.39,0,*71
1497247538.6,3748,19.94,74136.0,16.33,-11.37,-11.63,0,*73
1497247539.87,3749,19.94,74134.8,16.33,-12.61,-12.83,0,*7F
1497247541.11,3750,19.94,74136.0,16.31,-14.01,-14.29,0,*73
1497247542.36,3751,19.94,74134.3,16.29,-13.79,-14.15,0,*7C
1497247543.62,3752,19.94,74138.5,16.29,-12.47,-12.75,0,*73
1497247544.86,3753,19.94,74138.5,16.27,-11.45,-11.77,0,*7C
1497247546.11,3754,20.0,74142.5,16.29,-11.97,-12.29,0,*72
1497247547.35,3755,19.94,74138.0,16.27,-14.19,-14.75,0,*71
1497247548.55,3756,20.0,74140.3,16.23,-13.93,-14.33,0,*71
1497247549.8,3757,19.94,74138.3,16.21,-12.57,-12.97,0,*73
1497247551.08,3758,20.0,74136.3,16.21,-12.15,-12.57,0,*76
1497247552.35,3759,20.0,74136.5,16.21,-11.67,-11.97,0,*7E
1497247553.63,3760,19.94,74132.5,16.21,-11.59,-12.07,0,*73
1497247554.89,3761,20.0,74132.3,16.21,-12.25,-12.71,0,*7B
1497247556.14,3762,19.94,74130.0,16.19,-12.61,-13.01,0,*75
1497247557.43,3763,19.94,74128.8,16.21,-12.15,-12.71,0,*7A
1497247558.7,3764,20.0,74130.3,16.21,-12.11,-12.57,0,*7D
1497247559.94,3765,20.0,74128.5,16.19,-12.11,-12.47,0,*76
1497247561.2,3766,20.0,74128.5,16.21,-11.93,-12.39,0,*7E
1497247562.43,3767,19.94,74128.5,16.19,-11.59,-12.03,0,*7B
1497247563.69,3768,20.0,74134.8,16.19,-11.77,-12.35,0,*7D
1497247564.93,3769,19.94,74132.5,16.19,-11.97,-12.89,0,*75
1497247566.18,3770,19.94,74134.3,16.19,-12.75,-13.29,0,*79
1497247567.39,3771,19.94,74134.8,16.19,-13.55,-14.29,0,*7C
1497247568.62,3772,20.0,74132.3,16.15,-16.09,-16.97,0,*78
1497247569.85,3773,19.94,74132.5,16.11,-16.41,-17.21,0,*7D
1497247571.05,3774,19.94,74130.0,16.03,-17.35,-18.11,0,*77
1497247572.29,3775,19.94,74128.3,16.01,-14.83,-15.67,0,*76
1497247573.51,3776,19.94,74128.3,15.97,-13.51,-14.15,0,*75
1497247574.74,3777,20.0,74134.8,15.97,-13.15,-13.79,0,*79
1497247575.96,3778,19.94,74134.0,15.97,-13.07,-13.73,0,*7F
1497247577.22,3779,20.0,74134.8,15.97,-12.15,-12.65,0,*7A
1497247578.47,3780,19.94,74132.8,15.97,-11.55,-12.21,0,*7B
1497247579.74,3781,20.0,74136.5,15.97,-11.93,-12.61,0,*74
1497247580.99,3782,19.94,74138.3,15.97,-11.55,-12.29,0,*71
1497247582.19,3783,19.94,74132.0,15.99,-12.29,-12.97,0,*73
1497247583.41,3784,19.94,74136.8,15.99,-11.77,-12.29,0,*79
1497247584.6,3785,19.94,74134.8,15.99,-12.89,-13.69,0,*7F
1497247585.87,3786,19.94,74136.3,15.97,-12.07,-12.75,0,*78
1497247587.13,3787,19.94,74138.5,15.97,-12.61,-13.33,0,*7A
1497247588.4,3788,19.94,74136.3,15.97,-12.61,-13.33,0,*75
1497247589.67,3789,19.94,74138.5,15.97,-12.07,-12.79,0,*7B
1497247590.93,3790,19.94,74136.3,15.93,-11.97,-12.79,0,*7D
1497247592.18,3791,19.94,74138.3,15.95,-11.07,-11.67,0,*7F
1497247593.37,3792,19.94,74136.0,15.95,-10.49,-11.19,0,*7E
1497247594.64,3793,19.94,74136.0,15.97,-10.41,-11.07,0,*7A
1497247595.86,3794,19.94,74134.0,15.99,-11.59,-12.47,0,*7C
1497247597.09,3795,20.0,74136.8,15.97,-11.45,-12.29,0,*76
1497247598.31,3796,20.0,74136.8,15.99,-11.51,-12.43,0,*72
1497247599.55,3797,19.94,74134.3,15.97,-11.55,-12.47,0,*7D
1497247600.8,3798,20.0,74136.3,15.97,-11.33,-12.03,0,*72
1497247602.01,3799,19.94,74130.3,15.97,-11.19,-12.03,0,*7B
1497247603.23,3800,20.0,74136.3,15.99,-11.63,-12.47,0,*77
1497247604.47,3801,19.94,74138.3,15.99,-11.73,-12.57,0,*76
1497247605.7,3802,20.0,74136.8,15.97,-12.29,-13.19,0,*7C
1497247606.95,3803,19.94,74134.8,15.97,-11.93,-12.93,0,*7C
1497247608.22,3804,19.94,74134.5,15.97,-11.81,-12.61,0,*75
1497247609.46,3805,20.0,74136.0,15.97,-11.67,-12.47,0,*78
1497247610.71,3806,20.0,74134.8,15.97,-11.55,-12.29,0,*72
1497247611.93,3807,20.0,74136.5,15.95,-11.55,-12.43,0,*7D
1497247613.13,3808,20.0,74136.0,15.95,-11.45,-12.21,0,*77
1497247614.37,3809,19.94,74128.8,15.95,-11.07,-11.89,0,*71
1497247615.62,3810,20.0,74138.3,15.95,-11.07,-11.67,0,*79
1497247616.86,3811,19.94,74134.0,15.95,-10.71,-11.51,0,*7D
1497247618.1,3812,19.94,74136.3,15.95,-13.87,-14.79,0,*7B
1497247619.33,3813,19.94,74138.5,15.93,-14.23,-15.25,0,*7D
1497247620.57,3814,19.94,74138.3,15.89,-15.35,-16.37,0,*77
1497247621.85,3815,19.94,74138.3,15.85,-14.47,-15.35,0,*7F
1497247623.09,3816,19.94,74132.5,15.81,-14.37,-15.35,0,*7F
1497247624.34,3817,19.94,74136.8,15.79,-14.89,-15.89,0,*7B
1497247625.6,3818,20.0,74140.3,15.75,-13.87,-14.75,0,*73
1497247626.85,3819,19.94,74140.0,15.73,-13.61,-14.51,0,*7A
1497247628.09,3820,19.94,74140.8,15.71,-13.55,-14.51,0,*75
1497247629.37,3821,19.94,74134.3,15.71,-13.83,-14.75,0,*79
1497247630.61,3822,19.94,74136.3,15.69,-13.87,-14.75,0,*77
1497247631.86,3823,19.94,74134.5,15.67,-13.33,-14.29,0,*7E
1497247633.1,3824,19.94,74132.3,15.63,-13.11,-13.83,0,*7A
1497247634.38,3825,20.0,74136.8,15.63,-12.75,-13.61,0,*74
1497247635.58,3826,19.94,74136.0,15.61,-12.21,-12.93,0,*78
1497247636.83,3827,19.94,74134.8,15.63,-12.11,-12.97,0,*7C
1497247638.1,3828,19.94,74132.3,15.63,-11.97,-12.79,0,*7E
1497247639.35,3829,19.94,74134.0,15.61,-11.67,-12.53,0,*7A
1497247640.57,3830,19.94,74132.0,15.61,-10.85,-11.55,0,*7A
1497247641.81,3831,19.94,74134.3,15.63,-11.11,-11.77,0,*75
1497247643.09,3832,19.94,74134.5,15.67,-11.33,-11.93,0,*78
1497247644.31,3833,19.94,74138.0,15.67,-12.03,-12.89,0,*71
1497247645.56,3834,19.94,74132.3,15.67,-11.51,-12.29,0,*78
1497247646.84,3835,19.94,74136.0,15.63,-10.79,-11.55,0,*7E
1497247648.06,3836,19.94,74136.3,15.61,-11.15,-11.93,0,*7E
1497247649.34,3837,19.94,74136.3,15.67,-11.93,-12.83,0,*75
1497247650.57,3838,19.94,74136.0,15.63,-12.25,-13.19,0,*72
1497247651.81,3839,19.94,74138.5,15.63,-12.47,-13.37,0,*7B
1497247653.07,3840,20.0,74140.3,15.63,-12.35,-13.19,0,*7C
1497247654.29,3841,19.94,74138.8,15.61,-12.07,-12.97,0,*79
1497247655.51,3842,19.94,74136.8,15.61,-11.37,-12.21,0,*77
1497247656.76,3843,20.0,74138.5,15.63,-11.15,-11.97,0,*7A
1497247658.0,3844,20.0,74136.3,15.61,-11.29,-12.11,0,*7D
1497247659.25,3845,19.94,74134.5,15.61,-11.29,-11.97,0,*71
1497247660.47,3846,19.94,74138.3,15.61,-11.97,-12.93,0,*70
1497247661.69,3847,19.94,74136.8,15.61,-11.63,-12.39,0,*7A
1497247662.97,3848,19.94,74138.8,15.59,-11.81,-12.71,0,*7E
1497247664.19,3849,19.94,74142.5,15.59,-12.43,-13.43,0,*72
1497247665.41,3850,19.94,74136.8,15.57,-14.33,-15.21,0,*77
1497247666.67,3851,19.94,74142.8,15.55,-14.55,-15.49,0,*7A
1497247667.89,3852,19.94,74142.5,15.53,-14.33,-15.35,0,*74
1497247669.15,3853,19.94,74140.3,15.51,-13.83,-14.65,0,*7F
1497247670.37,3854,19.94,74142.3,15.47,-11.73,-12.47,0,*74
1497247671.62,3855,19.94,74140.5,15.47,-11.29,-12.11,0,*79
1497247672.84,3856,19.94,74136.8,15.47,-11.19,-11.89,0,*7B
1497247674.09,3857,19.94,74134.5,15.47,-11.33,-12.15,0,*74
1497247675.29,3858,19.94,74134.3,15.47,-12.43,-13.19,0,*72
1497247676.53,3859,19.94,74134.3,15.45,-12.47,-13.29,0,*76
1497247677.76,3860,20.0,74134.8,15.47,-11.45,-12.35,0,*73
1497247679.03,3861,19.94,74134.3,15.45,-11.33,-12.11,0,*77
1497247680.28,3862,19.94,74134.3,15.47,-11.37,-12.35,0,*74
1497247681.5,3863,19.94,74136.5,15.47,-11.51,-12.21,0,*70
1497247682.75,3864,19.94,74134.8,15.47,-11.77,-12.71,0,*76
1497247683.98,3865,19.94,74134.8,15.47,-11.37,-12.21,0,*76
1497247685.22,3866,19.94,74132.8,15.47,-11.73,-12.35,0,*70
1497247686.45,3867,19.94,74138.3,15.47,-11.45,-12.15,0,*76
1497247687.69,3868,19.94,74134.5,15.45,-11.97,-12.97,0,*7E
1497247688.91,3869,19.94,74134.3,15.47,-12.57,-13.55,0,*7D
1497247690.14,3870,19.94,74134.5,15.45,-12.43,-13.19,0,*7A
1497247691.36,3871,19.94,74138.0,15.43,-11.67,-12.47,0,*72
1497247692.61,3872,19.94,74138.0,15.43,-11.07,-11.77,0,*77
1497247693.86,3873,19.94,74136.0,15.43,-10.67,-11.51,0,*75
1497247695.08,3874,19.94,74138.5,15.43,-10.71,-11.41,0,*74
1497247696.31,3875,20.0,74138.8,15.43,-10.27,-11.07,0,*74
1497247697.53,3876,19.94,74134.5,15.45,-9.79,-10.49,0,*49
1497247698.77,3877,19.94,74138.0,15.45,-9.93,-10.67,0,*40
1497247699.98,3878,19.94,74140.5,15.47,-10.09,-10.79,0,*79
1497247701.2,3879,19.94,74140.5,15.49,-10.49,-11.29,0,*76
1497247702.43,3880,19.94,74142.0,15.49,-11.93,-13.07,0,*78
1497247703.67,3881,19.94,74144.8,15.49,-12.79,-13.79,0,*77
1497247704.91,3882,19.94,74142.5,15.45,-12.97,-13.87,0,*79
1497247706.16,3883,19.94,74144.8,15.43,-13.87,-14.79,0,*78
1497247707.41,3884,19.94,74144.8,15.39,-13.97,-14.79,0,*73
1497247708.61,3885,19.94,74138.0,15.35,-13.43,-14.33,0,*79